When you browse on this site, cookies collect data to enhance your experience and personalize the content and advertising you see.
Visit our Privacy Policy to learn more. By continuing to use the site, you agree to this use of cookies and data.
  • In United Kingdom
  • List of Countries
  • For 7 days
  • Water Temperature
  • Satellite Maps
  • Weather Map
  • Weather Widgets
  • user-avatar
    Login

    Hourly Weather Obukhivka

    Today, 25 April, Thursday

    Time Temperature Precipitation Wind Pressure Humidity
    00:00 +14°C° 0 mm 1 mps 757 mmHg 59%
    01:00 +14°C° 0 mm 1 mps 757 mmHg 60%
    02:00 +13°C° 0 mm 1 mps 757 mmHg 61%
    03:00 +13°C° 0 mm 1 mps 757 mmHg 62%
    04:00 +13°C° 0 mm 1 mps 757 mmHg 64%
    05:00 +13°C° 0 mm 1 mps 757 mmHg 65%
    06:00 +13°C° 0 mm 1 mps 757 mmHg 67%
    07:00 +15°C° 0 mm 1 mps 757 mmHg 62%
    08:00 +18°C° 0 mm 1 mps 757 mmHg 57%
    09:00 +20°C° 0 mm 1 mps 757 mmHg 50%
    10:00 +20°C° 0 mm 2 mps 757 mmHg 46%
    11:00 +23°C° 0 mm 2 mps 757 mmHg 42%
    12:00 +24°C° 0 mm 2 mps 757 mmHg 38%
    13:00 +24°C° 0 mm 2 mps 757 mmHg 37%
    14:00 +25°C° 0 mm 2 mps 757 mmHg 36%
    15:00 +25°C° 0 mm 2 mps 756 mmHg 34%
    16:00 +25°C° 0 mm 1 mps 756 mmHg 37%
    17:00 +25°C° 0 mm 1 mps 756 mmHg 39%
    18:00 +25°C° 0 mm 1 mps 756 mmHg 42%
    19:00 +21°C° 0 mm 0 mps 756 mmHg 45%
    20:00 +19°C° 0 mm 0 mps 755 mmHg 47%
    21:00 +17°C° 0 mm 0 mps 755 mmHg 50%
    22:00 +17°C° 0 mm 0 mps 755 mmHg 52%
    23:00 +16°C° 0 mm 0 mps 755 mmHg 53%

    Tomorrow, 26 April, Friday

    Time Temperature Precipitation Wind Pressure Humidity
    00:00 +16°C° 0 mm 0 mps 755 mmHg 54%
    01:00 +16°C° 0.1 mm 1 mps 755 mmHg 57%
    02:00 +16°C° 0.1 mm 1 mps 755 mmHg 59%
    03:00 +15°C° 0.1 mm 1 mps 755 mmHg 61%
    04:00 +15°C° 0.6 mm 1 mps 755 mmHg 64%
    05:00 +14°C° 0.6 mm 0 mps 755 mmHg 67%
    06:00 +14°C° 0.6 mm 0 mps 754 mmHg 69%
    07:00 +15°C° 0.1 mm 0 mps 754 mmHg 64%
    08:00 +19°C° 0.1 mm 1 mps 755 mmHg 60%
    09:00 +21°C° 0.1 mm 1 mps 755 mmHg 55%
    10:00 +22°C° 0 mm 1 mps 754 mmHg 50%
    11:00 +23°C° 0 mm 1 mps 754 mmHg 46%
    12:00 +25°C° 0 mm 1 mps 754 mmHg 41%
    13:00 +25°C° 0 mm 1 mps 754 mmHg 40%
    14:00 +25°C° 0 mm 1 mps 754 mmHg 39%
    15:00 +23°C° 0 mm 0 mps 753 mmHg 37%
    16:00 +24°C° 0 mm 1 mps 753 mmHg 41%
    17:00 +24°C° 0 mm 1 mps 753 mmHg 45%
    18:00 +23°C° 0 mm 1 mps 753 mmHg 49%
    19:00 +22°C° 0 mm 1 mps 753 mmHg 51%
    20:00 +21°C° 0 mm 1 mps 753 mmHg 53%
    21:00 +20°C° 0 mm 1 mps 753 mmHg 55%
    22:00 +19°C° 0.5 mm 1 mps 753 mmHg 60%
    23:00 +18°C° 0.5 mm 1 mps 753 mmHg 65%

    Day after tomorrow, 27 April, Saturday

    Time Temperature Precipitation Wind Pressure Humidity
    00:00 +15°C° 0.5 mm 0 mps 753 mmHg 70%
    01:00 +16°C° 0.5 mm 1 mps 752 mmHg 73%
    02:00 +15°C° 0.5 mm 1 mps 752 mmHg 75%
    03:00 +15°C° 0.5 mm 1 mps 752 mmHg 78%
    04:00 +15°C° 0.1 mm 1 mps 752 mmHg 78%
    05:00 +14°C° 0.1 mm 1 mps 752 mmHg 78%
    06:00 +13°C° 0.1 mm 0 mps 752 mmHg 78%
    07:00 +15°C° 0 mm 0 mps 751 mmHg 71%
    08:00 +19°C° 0 mm 1 mps 751 mmHg 65%
    09:00 +21°C° 0 mm 1 mps 751 mmHg 59%
    10:00 +22°C° 0.1 mm 1 mps 751 mmHg 53%
    11:00 +23°C° 0.1 mm 1 mps 751 mmHg 47%
    12:00 +24°C° 0.1 mm 2 mps 751 mmHg 41%
    13:00 +24°C° 0 mm 2 mps 750 mmHg 42%
    14:00 +24°C° 0 mm 2 mps 750 mmHg 42%
    15:00 +24°C° 0 mm 2 mps 750 mmHg 42%
    16:00 +24°C° 0 mm 2 mps 749 mmHg 47%
    17:00 +23°C° 0 mm 2 mps 749 mmHg 52%
    18:00 +21°C° 0 mm 2 mps 749 mmHg 58%
    19:00 +20°C° 0 mm 2 mps 749 mmHg 60%
    20:00 +19°C° 0 mm 2 mps 749 mmHg 62%
    21:00 +18°C° 0 mm 2 mps 749 mmHg 64%
    22:00 +17°C° 0 mm 2 mps 748 mmHg 64%
    23:00 +16°C° 0 mm 2 mps 748 mmHg 65%

    28 April, Sunday

    Time Temperature Precipitation Wind Pressure Humidity
    00:00 +16°C° 0 mm 2 mps 748 mmHg 65%
    01:00 +15°C° 0 mm 2 mps 748 mmHg 64%
    02:00 +14°C° 0 mm 2 mps 748 mmHg 63%
    03:00 +14°C° 0 mm 2 mps 748 mmHg 61%
    04:00 +14°C° 0 mm 2 mps 747 mmHg 64%
    05:00 +13°C° 0 mm 2 mps 747 mmHg 66%
    06:00 +12°C° 0 mm 3 mps 747 mmHg 69%
    07:00 +14°C° 0 mm 3 mps 747 mmHg 65%
    08:00 +16°C° 0 mm 3 mps 747 mmHg 62%
    09:00 +18°C° 0 mm 4 mps 747 mmHg 59%
    10:00 +17°C° 0 mm 5 mps 747 mmHg 56%
    11:00 +19°C° 0 mm 5 mps 746 mmHg 52%
    12:00 +19°C° 0 mm 6 mps 746 mmHg 49%
    13:00 +20°C° 0 mm 6 mps 746 mmHg 46%
    14:00 +21°C° 0 mm 6 mps 746 mmHg 43%
    15:00 +22°C° 0 mm 7 mps 745 mmHg 40%
    16:00 +21°C° 0 mm 6 mps 745 mmHg 46%
    17:00 +20°C° 0 mm 5 mps 745 mmHg 51%
    18:00 +18°C° 0 mm 4 mps 745 mmHg 56%
    19:00 +18°C° 0 mm 3 mps 745 mmHg 57%
    20:00 +17°C° 0 mm 3 mps 745 mmHg 58%
    21:00 +16°C° 0 mm 2 mps 745 mmHg 58%
    22:00 +16°C° 0.3 mm 2 mps 745 mmHg 67%
    23:00 +15°C° 0.3 mm 2 mps 745 mmHg 75%

    29 April, Monday

    Time Temperature Precipitation Wind Pressure Humidity
    00:00 +14°C° 0.3 mm 2 mps 745 mmHg 83%
    01:00 +14°C° 0.3 mm 2 mps 746 mmHg 86%
    02:00 +12°C° 0.3 mm 3 mps 746 mmHg 90%
    03:00 +12°C° 0.3 mm 3 mps 746 mmHg 94%
    04:00 +11°C° 0.5 mm 4 mps 746 mmHg 93%
    05:00 +10°C° 0.5 mm 4 mps 746 mmHg 92%
    06:00 +9°C° 0.5 mm 5 mps 746 mmHg 91%
    07:00 +8°C° 0.9 mm 6 mps 747 mmHg 89%
    08:00 +7°C° 0.9 mm 6 mps 747 mmHg 88%
    09:00 +5°C° 0.9 mm 7 mps 748 mmHg 87%
    10:00 +5°C° 0.5 mm 7 mps 748 mmHg 85%
    11:00 +4°C° 0.5 mm 7 mps 748 mmHg 84%
    12:00 +4°C° 0.5 mm 7 mps 749 mmHg 83%
    13:00 +5°C° 0.1 mm 7 mps 749 mmHg 80%
    14:00 +5°C° 0.1 mm 7 mps 749 mmHg 77%
    15:00 +6°C° 0.1 mm 7 mps 749 mmHg 74%
    16:00 +7°C° 0 mm 6 mps 749 mmHg 72%
    17:00 +7°C° 0 mm 6 mps 749 mmHg 70%
    18:00 +7°C° 0 mm 6 mps 749 mmHg 68%
    19:00 +7°C° 0.1 mm 5 mps 749 mmHg 69%
    20:00 +7°C° 0.1 mm 5 mps 749 mmHg 71%
    21:00 +6°C° 0.1 mm 5 mps 749 mmHg 72%
    22:00 +6°C° 0 mm 5 mps 749 mmHg 73%
    23:00 +6°C° 0 mm 5 mps 749 mmHg 73%

    30 April, Tuesday

    Time Temperature Precipitation Wind Pressure Humidity
    00:00 +6°C° 0 mm 5 mps 749 mmHg 74%
    01:00 +6°C° 0 mm 5 mps 749 mmHg 73%
    02:00 +6°C° 0 mm 5 mps 749 mmHg 73%
    03:00 +5°C° 0 mm 5 mps 749 mmHg 72%
    04:00 +4°C° 0.2 mm 6 mps 749 mmHg 73%
    05:00 +4°C° 0.2 mm 6 mps 749 mmHg 74%
    06:00 +4°C° 0.2 mm 6 mps 749 mmHg 75%
    07:00 +3°C° 1.4 mm 7 mps 749 mmHg 77%
    08:00 +3°C° 1.4 mm 7 mps 749 mmHg 79%
    09:00 +3°C° 1.4 mm 7 mps 749 mmHg 82%
    10:00 +3°C° 1.4 mm 7 mps 749 mmHg 83%
    11:00 +3°C° 1.4 mm 7 mps 749 mmHg 84%
    12:00 +3°C° 1.4 mm 7 mps 749 mmHg 86%
    13:00 +3°C° 1 mm 7 mps 749 mmHg 86%
    14:00 +3°C° 1 mm 7 mps 748 mmHg 86%
    15:00 +3°C° 1 mm 7 mps 748 mmHg 86%
    16:00 +3°C° 0.2 mm 7 mps 748 mmHg 86%
    17:00 +3°C° 0.2 mm 6 mps 748 mmHg 86%
    18:00 +3°C° 0.2 mm 6 mps 748 mmHg 86%
    19:00 +3°C° 0.1 mm 6 mps 748 mmHg 87%
    20:00 +3°C° 0.1 mm 6 mps 748 mmHg 88%
    21:00 +3°C° 0.1 mm 6 mps 748 mmHg 89%
    22:00 +3°C° 0.4 mm 6 mps 748 mmHg 89%
    23:00 +3°C° 0.4 mm 6 mps 748 mmHg 90%
    Show more